Regional Weather Roundup
Issued by NWS

Home | Current Version | Previous Version | Text Only | Print | Product List | Glossary On
Versions: 1 2 3 4 5 6 7 8 9 10 11 12 13 14 15 16 17 18 19 20 21 22 23 24 25 26 27 28 29 30 31 32 33 34 35 36 37 38 39 40 41 42 43 44 45 46 47 48 49 50
000
ASUS43 KDMX 011904
RWRIA

WEATHER ROUNDUP FOR IOWA
NATIONAL WEATHER SERVICE DES MOINES IA
  ISSUED BY NWS QUAD CITIES IA IL
100 PM CST SUN MAR 01 2015

NOTE: "FAIR" INDICATES FEW OR NO CLOUDS BELOW 12,000 FEET WITH NO
SIGNIFICANT WEATHER AND/OR OBSTRUCTIONS TO VISIBILITY.

* - THESE STATIONS ARE NOT NWS STATIONS...THUS NOT UNDER NWS
QUALITY CONTROL.  THEY ALSO DO NOT REPORT WEATHER SUCH
AS PRECIPITATION OR FOG.

IAZ001>003-012>014-020>022-031>034-043>046-012000-
   NORTHWEST IOWA

CITY           SKY/WX    TMP DP  RH WIND       PRES   REMARKS
DENNISON *     SUNNY     28  16  59 NW9       30.34F WCI  20
SIOUX CITY     MOSUNNY   34  17  50 NW13      30.35F WCI  25
SPENCER        MOSUNNY   28  14  55 W20       30.31F WCI  15
$$

IAZ055>058-069>071-079>083-090>094-012000-
   SOUTHWEST IOWA

CITY           SKY/WX    TMP DP  RH WIND       PRES   REMARKS
CLARINDA *     MOSUNNY   34  21  60 NW8G21    30.40F WCI  27
LAMONI         MOSUNNY   30  20  66 W7        30.36F WCI  23
$$

IAZ047>049-059>061-072>074-084-012000-
   CENTRAL IOWA

CITY           SKY/WX    TMP DP  RH WIND       PRES   REMARKS
AMES           MOSUNNY   28  17  63 NW9       30.35S WCI  19
DES MOINES     MOSUNNY   31  18  58 W9        30.35F WCI  23
GRINNELL *     MOCLDY    28  19  70 W10       30.34F WCI  19
MARSHALLTOWN   SUNNY     25  18  74 W10       30.33F WCI  15
PERRY *          N/A     30  20  67 NW5       30.36S WCI  25
$$

IAZ004>006-015-016-023>025-035-036-012000-
   NORTH CENTRAL IOWA

CITY           SKY/WX    TMP DP  RH WIND       PRES   REMARKS
ESTHERVILLE    MOSUNNY   25  14  63 W21       30.29F WCI  11
FORT DODGE *   CLOUDY    27  14  59 NW9       30.34F WCI  17
MASON CITY     SUNNY     23  12  62 NW15      30.31F WCI  10
IOWA FALLS *   FAIR      25  16  68 W13       30.34S WCI  14
$$

IAZ007>011-017>019-026>030-037>042-050>054-066-012000-
   NORTHEAST IOWA

CITY           SKY/WX    TMP DP  RH WIND       PRES   REMARKS
CEDAR RAPIDS   SUNNY     25  18  74 W9        30.32F WCI  15
CLINTON *      SUNNY     21  18  86 W8        30.37F WCI  12
DUBUQUE        PTSUNNY   24  17  74 W14       30.29F WCI  12
WATERLOO       SUNNY     24  16  71 W12       30.31F WCI  13
$$

IAZ064-065-067-068-078-012000-
   EAST CENTRAL IOWA

CITY           SKY/WX    TMP DP  RH WIND       PRES   REMARKS
DAVENPORT      MOSUNNY   23  15  71 W10       30.35F WCI  12
IOWA CITY      PTSUNNY   25  17  72 W12       30.37F WCI  14
QUAD CITIES    CLOUDY    26  15  63 W5        30.35F WCI  20
$$

IAZ062-063-075>077-085>089-095>099-012000-
   SOUTHEAST IOWA

CITY           SKY/WX    TMP DP  RH WIND       PRES   REMARKS
BURLINGTON     CLOUDY    26  17  68 N5        30.36F WCI  20
CENTERVILLE *  FAIR      27  19  74 W7        30.37F WCI  19
OTTUMWA        PTSUNNY   27  18  69 W7        30.36F WCI  19
$$

ABBREVIATIONS USED IN REMARKS
   TC - TEMPERATURES IN CELSIUS
  WCI - WIND CHILL INDEX
   HX - HEAT INDEX
  VSB - VISIBILITY
$$



USA.gov is the U.S. government's official web portal to all federal, state and local government web resources and services.